Fargo, ND

12:26 AM CDT on August 21, 2017 (GMT -0500)
Hector International

Weather History for KFAR - May, 2009

Change the Weather History Date:

Wednesday, May 13, 2009

  Actual Average Record
Temperature  
Mean Temperature 52 °F 56 °F  
Max Temperature 67 °F 69 °F 95 °F (1894)
Min Temperature 37 °F 44 °F 20 °F (1888)
Degree Days  
Heating Degree Days 13 10  
Month to date heating degree days 190 148  
Since 1 July heating degree days 9184 8604  
Cooling Degree Days 0 1  
Month to date cooling degree days 0 9  
Year to date cooling degree days 0 12  
Growing Degree Days 4 (Base 50)    
Moisture  
Dew Point 47 °F    
Average Humidity 61    
Maximum Humidity 87    
Minimum Humidity 34    
Precipitation  
Precipitation 0.07 in 0.09 in 1.38 in (1972)
Month to date precipitation 1.02 1.06  
Year to date precipitation 8.29 5.06  
Snow  
Snow 0.00 in 0.00 in 0.50 in (1924)
Month to date snowfall 0.0 0.0  
Since 1 July snowfall 79.7 50.4  
Snow Depth 0.00 in    
Sea Level Pressure  
Sea Level Pressure 29.49 in    
Wind  
Wind Speed 22 mph (WSW)    
Max Wind Speed 35 mph    
Max Gust Speed 43 mph    
Visibility 8 miles    
Events Rain    
T = Trace of Precipitation, MM = Missing Value Source: NWS Daily Summary

Daily Weather History Graph

Daily Weather History Graph

Search for Another Location

Airport or City:

Trip Planner

Search our weather history database for the weather conditions in past years. The results will help you decide how hot, cold, wet, or windy it might be!

Date:

Astronomy

May. 13, 2009 Rise Set
Actual Time 5:54 AM CDT 8:53 PM CDT
Civil Twilight 5:18 AM CDT 9:29 PM CDT
Nautical Twilight 4:32 AM CDT 10:15 PM CDT
Astronomical Twilight 3:37 AM CDT 11:11 PM CDT
Moon 12:40 AM CDT (5/13) 8:57 AM CDT (5/13)
Length of Visible Light 16h 10m
Length of Day
14h 59m
Waning Gibbous, 82% of the Moon is Illuminated
May 13
Waning Gibbous
May 17
Last Quarter
May 24
New
May 30
First Quarter
Jun 7
Full

Hourly Weather History & Observations

Time (CDT) Temp. Windchill Dew Point Humidity Pressure Visibility Wind Dir Wind Speed Gust Speed Precip Events Conditions
12:10 AM 60.8 °F - 55.4 °F 82% 29.39 in 10.0 mi SSE 23.0 mph 29.9 mph N/A   Overcast
12:20 AM 60.8 °F - 55.4 °F 82% 29.37 in 10.0 mi SSE 23.0 mph 32.2 mph N/A   Overcast
12:38 AM 60.8 °F - 55.4 °F 82% 29.39 in 2.0 mi South 23.0 mph 33.4 mph 0.05 in Rain Heavy Rain
12:46 AM 59.0 °F - 55.4 °F 88% 29.37 in 1.8 mi South 29.9 mph 40.3 mph 0.14 in Rain Heavy Rain
12:53 AM 59.0 °F - 55.9 °F 90% 29.37 in 2.5 mi SSE 34.5 mph 43.7 mph 0.16 in Rain Rain
1:04 AM 59.0 °F - 55.4 °F 88% 29.35 in 3.0 mi SSE 27.6 mph 36.8 mph 0.05 in Rain Rain
1:14 AM 59.0 °F - 55.4 °F 88% 29.36 in 8.0 mi South 21.9 mph 32.2 mph 0.06 in Rain Light Rain
1:35 AM 59.0 °F - 55.4 °F 88% 29.33 in 9.0 mi South 20.7 mph 29.9 mph 0.07 in Rain Light Rain
1:53 AM 59.0 °F - 55.9 °F 90% 29.33 in 7.0 mi SSE 26.5 mph 36.8 mph 0.07 in   Overcast
2:49 AM 59.0 °F - 55.4 °F 88% 29.34 in 9.0 mi South 18.4 mph 31.1 mph 0.00 in   Overcast
2:53 AM 59.0 °F - 55.0 °F 87% 29.34 in 9.0 mi South 23.0 mph 31.1 mph 0.00 in   Overcast
3:00 AM 59.0 °F - 55.4 °F 88% 29.33 in 9.0 mi South 21.9 mph 29.9 mph N/A   Overcast
3:48 AM 59.0 °F - 55.4 °F 88% 29.35 in 8.0 mi SW 16.1 mph - N/A   Overcast
3:53 AM 59.0 °F - 55.0 °F 87% 29.36 in 9.0 mi West 20.7 mph 28.8 mph N/A   Overcast
4:00 AM 57.2 °F - 51.8 °F 82% 29.37 in 10.0 mi West 23.0 mph 32.2 mph N/A   Overcast
4:16 AM 55.4 °F - 51.8 °F 88% 29.38 in 10.0 mi West 13.8 mph - N/A   Scattered Clouds
4:53 AM 53.1 °F - 48.9 °F 86% 29.40 in 10.0 mi WSW 11.5 mph - N/A   Clear
5:53 AM 51.1 °F - 46.9 °F 86% 29.40 in 10.0 mi SW 11.5 mph - N/A   Clear
6:53 AM 53.1 °F - 48.0 °F 83% 29.42 in 10.0 mi SW 13.8 mph - N/A   Clear
7:53 AM 54.0 °F - 48.9 °F 83% 29.44 in 10.0 mi SSW 17.3 mph - N/A   Clear
8:53 AM 57.0 °F - 48.0 °F 72% 29.44 in 10.0 mi SW 19.6 mph 26.5 mph N/A   Clear
9:53 AM 59.0 °F - 46.0 °F 62% 29.44 in 10.0 mi WSW 26.5 mph 32.2 mph N/A   Partly Cloudy
10:53 AM 62.1 °F - 46.9 °F 58% 29.45 in 10.0 mi WSW 23.0 mph 33.4 mph N/A   Clear
11:53 AM 64.0 °F - 46.0 °F 52% 29.47 in 10.0 mi WSW 25.3 mph 34.5 mph N/A   Clear
12:53 PM 64.9 °F - 44.1 °F 47% 29.47 in 10.0 mi West 26.5 mph 38.0 mph N/A   Partly Cloudy
1:53 PM 66.0 °F - 42.1 °F 42% 29.48 in 10.0 mi West 25.3 mph 33.4 mph N/A   Clear
2:53 PM 66.0 °F - 37.9 °F 36% 29.49 in 10.0 mi West 24.2 mph 40.3 mph N/A   Partly Cloudy
3:53 PM 64.9 °F - 41.0 °F 42% 29.49 in 10.0 mi West 24.2 mph 36.8 mph N/A   Clear
4:53 PM 64.0 °F - 41.0 °F 43% 29.51 in 10.0 mi West 27.6 mph 35.7 mph N/A   Partly Cloudy
5:53 PM 63.0 °F - 39.9 °F 43% 29.52 in 10.0 mi West 26.5 mph 38.0 mph N/A   Scattered Clouds
6:53 PM 57.9 °F - 39.9 °F 51% 29.57 in 10.0 mi West 29.9 mph 39.1 mph N/A   Mostly Cloudy
7:53 PM 54.0 °F - 39.9 °F 59% 29.61 in 10.0 mi WNW 27.6 mph 34.5 mph N/A   Overcast
8:53 PM 51.1 °F - 39.9 °F 66% 29.63 in 10.0 mi West 20.7 mph 28.8 mph 0.00 in   Overcast
9:32 PM 46.4 °F 38.5 °F 42.8 °F 87% 29.65 in 10.0 mi West 21.9 mph 29.9 mph 0.00 in Rain Light Rain
9:53 PM 46.0 °F 38.0 °F 43.0 °F 89% 29.68 in 10.0 mi West 21.9 mph 25.3 mph 0.01 in Rain Light Rain
10:13 PM 42.8 °F 33.1 °F 39.2 °F 87% 29.70 in 3.0 mi North 25.3 mph 31.1 mph 0.01 in Rain Light Rain
10:18 PM 42.8 °F 33.8 °F 39.2 °F 87% 29.70 in 4.0 mi North 21.9 mph 31.1 mph 0.01 in Rain Light Rain
10:21 PM 42.8 °F 34.5 °F 39.2 °F 87% 29.71 in 5.0 mi North 18.4 mph 31.1 mph 0.01 in Rain Light Rain
10:34 PM 42.8 °F 34.8 °F 39.2 °F 87% 29.71 in 4.0 mi North 17.3 mph - 0.01 in Rain Light Rain
10:49 PM 41.0 °F 32.5 °F 37.4 °F 87% 29.72 in 10.0 mi North 17.3 mph 26.5 mph 0.01 in   Overcast
10:53 PM 41.0 °F 32.2 °F 37.0 °F 86% 29.74 in 10.0 mi North 18.4 mph 25.3 mph 0.01 in   Overcast
11:19 PM 41.0 °F 31.9 °F 35.6 °F 81% 29.74 in 10.0 mi North 19.6 mph - N/A   Overcast
11:53 PM 39.9 °F 30.0 °F 35.1 °F 83% 29.79 in 10.0 mi North 21.9 mph 26.5 mph N/A   Overcast